Eugene, OR

4:35 PM PDT on July 24, 2017 (GMT -0700)
Mahlon Sweet

Weather History for KEUG - May, 2013

Change the Weather History Date:

Friday, May 17, 2013

  Actual Average Record
Temperature  
Mean Temperature 58 °F 56 °F  
Max Temperature 66 °F 67 °F 95 °F (2008)
Min Temperature 50 °F 44 °F 33 °F (1976)
Degree Days  
Heating Degree Days 7 10  
Month to date heating degree days 93 187  
Since 1 July heating degree days 4113 4529  
Cooling Degree Days 0 0  
Month to date cooling degree days 5 0  
Year to date cooling degree days 5 0  
Growing Degree Days 8 (Base 50)    
Moisture  
Dew Point 45 °F    
Average Humidity 69    
Maximum Humidity 93    
Minimum Humidity 44    
Precipitation  
Precipitation T in 0.08 in 1.16 in (1991)
Month to date precipitation 0.25 1.52  
Year to date precipitation 6.79 22.14  
Snow  
Snow 0.00 in - - ()
Month to date snowfall 0.0  
Since 1 July snowfall 0.0  
Snow Depth 0.00 in    
Sea Level Pressure  
Sea Level Pressure 30.06 in    
Wind  
Wind Speed 5 mph (SW)    
Max Wind Speed 16 mph    
Max Gust Speed 20 mph    
Visibility 10 miles    
Events      
T = Trace of Precipitation, MM = Missing Value Source: NWS Daily Summary

Daily Weather History Graph

Daily Weather History Graph

Search for Another Location

Airport or City:

Trip Planner

Search our weather history database for the weather conditions in past years. The results will help you decide how hot, cold, wet, or windy it might be!

Date:

Astronomy

May. 17, 2013 Rise Set
Actual Time 5:43 AM PDT 8:35 PM PDT
Civil Twilight 5:10 AM PDT 9:09 PM PDT
Nautical Twilight 4:27 AM PDT 9:52 PM PDT
Astronomical Twilight 3:37 AM PDT 10:42 PM PDT
Moon 12:28 PM PDT (5/17) 1:24 AM PDT (5/17)
Length of Visible Light 15h 58m
Length of Day
14h 51m
Waxing Crescent, 46% of the Moon is Illuminated
May 17
Waxing Crescent
May 17
First Quarter
May 24
Full
May 31
Last Quarter
Jun 8
New

Hourly Weather History & Observations

Time (PDT) Temp. Dew Point Humidity Pressure Visibility Wind Dir Wind Speed Gust Speed Precip Events Conditions
12:54 AM 50.0 °F 46.9 °F 89% 30.04 in 10.0 mi SSW 4.6 mph - N/A   Overcast
1:54 AM 50.0 °F 46.9 °F 89% 30.03 in 10.0 mi SSE 3.5 mph - N/A   Overcast
2:54 AM 51.1 °F 46.9 °F 86% 30.03 in 10.0 mi SSW 4.6 mph - N/A   Overcast
3:54 AM 50.0 °F 46.9 °F 89% 30.03 in 10.0 mi South 4.6 mph - N/A   Overcast
4:54 AM 50.0 °F 48.2 °F 94% 30.03 in 10.0 mi Calm Calm - N/A   Overcast
5:54 AM 50.0 °F 46.9 °F 89% 30.04 in 10.0 mi Calm Calm - N/A   Overcast
6:54 AM 50.0 °F 48.0 °F 93% 30.04 in 10.0 mi SE 3.5 mph - N/A   Overcast
7:54 AM 53.1 °F 46.9 °F 80% 30.04 in 10.0 mi SSW 4.6 mph - N/A   Overcast
8:54 AM 55.0 °F 46.9 °F 74% 30.05 in 10.0 mi SSW 4.6 mph - N/A   Mostly Cloudy
9:54 AM 57.0 °F 46.9 °F 69% 30.05 in 10.0 mi SW 3.5 mph - N/A   Overcast
10:54 AM 60.1 °F 44.1 °F 55% 30.05 in 10.0 mi Calm Calm - N/A   Mostly Cloudy
11:54 AM 62.6 °F 42.8 °F 48% 30.05 in 10.0 mi West 6.9 mph - N/A   Mostly Cloudy
12:54 PM 64.0 °F 42.1 °F 45% 30.05 in 10.0 mi WSW 8.1 mph - 0.00 in   Mostly Cloudy
1:54 PM 64.9 °F 45.0 °F 48% 30.06 in 10.0 mi West 12.7 mph - N/A   Mostly Cloudy
2:54 PM 64.0 °F 42.1 °F 45% 30.06 in 10.0 mi SW 5.8 mph - N/A   Mostly Cloudy
3:54 PM 66.0 °F 44.1 °F 45% 30.06 in 10.0 mi West 11.5 mph 16.1 mph 0.00 in   Mostly Cloudy
4:54 PM 62.6 °F 46.4 °F 55% 30.06 in 10.0 mi WNW 8.1 mph - N/A   Mostly Cloudy
5:54 PM 61.0 °F 46.0 °F 58% 30.07 in 10.0 mi West 3.5 mph - 0.00 in   Mostly Cloudy
6:54 PM 61.0 °F 46.0 °F 58% 30.07 in 10.0 mi Calm Calm - N/A   Mostly Cloudy
7:54 PM 60.1 °F 43.0 °F 53% 30.08 in 10.0 mi West 9.2 mph - N/A   Mostly Cloudy
8:54 PM 55.0 °F 44.1 °F 67% 30.09 in 10.0 mi WSW 4.6 mph - N/A   Mostly Cloudy
9:54 PM 53.1 °F 44.1 °F 71% 30.12 in 10.0 mi West 4.6 mph - N/A   Partly Cloudy
10:54 PM 52.0 °F 44.1 °F 74% 30.13 in 10.0 mi West 6.9 mph - N/A   Mostly Cloudy
11:54 PM 52.0 °F 45.0 °F 77% 30.14 in - West 4.6 mph - N/A   Overcast